Torna al catalogo

SL-12 R/B(2)

AttivoHEO
NORAD 26393·ROCKET BODY·🇷🇺 Russia

Lanciato Jun 30, 2000 da Baikonur Cosmodrome

Loading…

Prossimi Passaggi (prossime 24 ore)

TLE

AggiornatoSource: Space-Track

Epoca: Sep 13, 2026, 20:48 UTC

1 26393U 00035D   26256.86714076  .00000109  00000-0  00000-0 0  9991
2 26393  61.8204 164.4521 5185898 291.6192  22.0986  1.45659391139387

Traccia SL-12 R/B(2) in tempo reale con AllMySat

Download on the App Store